Location: Proctor
(47.8934°N, 114.3048°W)
Time: 21:11:47
(UTC+00:00)

ISS - Visible Passes

Search period start: 30 March 2023 00:00
Search period end: 09 April 2023 00:00
Orbit: 413 x 421 km, 51.6° (Epoch: 30 March)

Date Brightness Start Highest point End Pass type
(mag) Time Alt. Az. Time Alt. Az. Time Alt. Az.
30 Mar -3.1 03:52:08 10° WNW 03:55:19 42° SSW 03:55:42 40° SSW visible
31 Mar -3.5 03:03:49 10° WNW 03:07:09 64° SSW 03:09:32 17° SE visible
31 Mar -0.8 04:41:55 10° WSW 04:42:27 11° WSW 04:42:27 11° WSW visible
01 Apr -1.7 03:52:48 10° W 03:55:16 19° SW 03:56:16 17° SSW visible
02 Apr -2.2 03:04:07 10° W 03:07:04 29° SW 03:10:00 10° SSE visible
04 Apr -1.0 03:04:53 10° WSW 03:06:32 13° SW 03:08:10 10° SSW visible
